Regional Weather Roundup
Issued by NWS

Current Version | Previous Version | Text Only | Print | Product List | Glossary On
Versions: 1 2 3 4 5 6 7 8 9 10 11 12 13 14 15 16 17 18 19 20 21 22 23 24 25 26 27 28 29 30 31 32 33 34 35 36 37 38 39 40 41 42 43 44 45 46 47 48 49 50
000
ASUS44 KOUN 252310
RWROK

WEATHER ROUNDUP FOR OKLAHOMA
NATIONAL WEATHER SERVICE NORMAN OK
600 PM CDT MON MAY 25 2015

NOTE: "FAIR" INDICATES FEW OR NO CLOUDS BELOW 12,000 FEET WITH NO
      SIGNIFICANT WEATHER AND/OR OBSTRUCTIONS TO VISIBILITY.

OKZ001>007-009>012-014-015-017-260000-
NORTHWEST OKLAHOMA AND THE PANHANDLE

CITY           SKY/WX    TMP DP  RH WIND       PRES   REMARKS
GAGE           CLOUDY    69  50  50 S16       29.81F
GUYMON         PTSUNNY   74  51  44 S12G24    29.82F
$$

OKZ016-021>023-033>039-044-045-260000-
SOUTHWEST OKLAHOMA

CITY           SKY/WX    TMP DP  RH WIND       PRES   REMARKS
LAWTON/REGL    CLOUDY    68  58  70 NW5       29.80R
LAWTON/FT SILL CLOUDY    68  57  68 NW5       29.79R
FREDERICK      CLOUDY    72  56  57 NW13G20   29.77R
CLINTON        CLOUDY    66  56  70 NW13G23   29.80F
HOBART         CLOUDY    68  55  63 NW14      29.79F
ALTUS AFB      PTSUNNY   70  57  63 N10       29.77F
$$

OKZ018>020-024>031-260000-
CENTRAL OKLAHOMA

CITY           SKY/WX    TMP DP  RH WIND       PRES   REMARKS
OKLAHOMA CITY  CLOUDY    66  54  65 SE20G30   29.75R
OKC/WILEY POST CLOUDY    66  57  72 VRB3      29.77R
STILLWATER     LGT RAIN  68  63  84 SE12G17   29.78F
GUTHRIE        CLOUDY    65  58  78 E10G20    29.73F
$$

OKZ008-013-054>072-260000-
NORTHEAST OKLAHOMA

CITY           SKY/WX    TMP DP  RH WIND       PRES   REMARKS
TULSA          TSTM      75  68  78 S10       29.82S
TULSA/JONES    RAIN      74  66  76 S9        29.84R
PONCA CITY     LGT RAIN  74  67  78 S9        29.77F
BARTLESVILLE   CLOUDY    72  70  93 SW3       29.82F
MUSKOGEE       TSTM      66  63  90 S16G31    29.90R FOG
$$

OKZ032-040>043-046>053-073>077-260000-
SOUTH CENTRAL/SOUTHEAST OKLAHOMA

CITY           SKY/WX    TMP DP  RH WIND       PRES   REMARKS
ARDMORE/DWNTWN CLOUDY    59  59 100 E3        29.76R
MCALESTER      RAIN      63  61  93 N13       29.87F FOG
$$



USA.gov is the U.S. government's official web portal to all federal, state and local government web resources and services.